DECAYED
Showing default

FLOCK 4X 1, 51017 (Decayed)

Orbit data source: Space-Track

FLOCK 4X 1, 51017 was a payload satellite owned by Planet (US) in LEO that was launched on Thu, 13 Jan 2022 UTC via an FALCON 9 launch vehicle from the Air Force Eastern Test Range (AFETR). Payload-class satellites include a variety of spacecraft equipped with specific instruments for various scientific and technological missions. These include communications satellites like Starlink; space stations such as the ISS; scientific satellites like the Hubble; Earth observation satellites from companies like Planet Labs, Umbra, and HawkEye 360; GPS; miniature CubeSats for education and research; and military/defense satellites.

Not visible in the next 10 days
Identifier
51017, 2022-002AK
Orbit
Decayed
Last TLE update
9 months ago
Origin
Manufacturer
Planet
Mission
Decayed Commercial Imaging
Bus & Motor
CUBESAT 3U, Unknown motor
Mass
5.7 kg wet, 5.7 kg dry
Launch date (UTC)
2022-01-13 (4 years ago)
Launch vehicle
FALCON 9
Launch site
Air Force Eastern Test Range (AFETR)
Object type
Payload
Rocket body
Debris
Shape & HBR
Box + 2 Pan, 0.1 m
Radar Cross Section
0.108 m², Small (<0.1 m²)

Expand to show TLE details & history

TLE from 9 months ago
0 FLOCK 4X 1
1 51017U 22002AK  24306.64252817  .18066373  25693-5  28014-3 0  9992
2 51017  97.3306  28.3725 0010178 261.0422  98.9730 16.47973319156485
Epoch: 2024-11-01T15:25Z
TLE epoch observation values (Epoch: 2024-11-01T15:25:14.433Z)
Latitude
-0.00004°
Longitude
115.65398°
Altitude
148.984 km
Speed
7.816 km/s
True Right ascension
01h 53m 29s
True Declination
0° 00' 00"
Sunlit
Object was in full shadow at epoch
Visualization orbit readout
Visualization observer readout
Orbital elements
Apogee altitude
148.108 km
Perigee altitude
134.836 km
Semi-major axis
6,519.609 km
Eccentricity
0.00102
Inclination
97.3306°
RAAN
28.3725°
Arg. of periapsis
261.0422°
True anomaly
99.08818°
Mean anomaly
98.973°
Eccentric anomaly
99.03059°
Mean motion
4.12298 °/min
Orbital period
87.32 mins
BSTAR
0.00028014
Loading maneuver chart data...
Loading SW <> Apogee altitude chart data...
|